timestamp,wind_dir_avg,wind_spd_avg,wind_spd_max_dir,wind_spd_gust,battery_voltage,lat,long
2021-02-11 00:04:01+00:00,294.0,7.0,307.0,8.77,12.57,47.59359,-54.27349
2021-02-11 00:14:01+00:00,306.0,9.24,311.0,12.55,12.57,47.59359,-54.27349
2021-02-11 00:24:01+00:00,302.0,10.2,294.0,11.64,12.57,47.59359,-54.27349
2021-02-11 00:34:01+00:00,306.0,10.11,299.0,12.78,12.57,47.59359,-54.27349
2021-02-11 00:44:01+00:00,308.0,9.06,308.0,10.88,12.57,47.59359,-54.27349
2021-02-11 00:54:01+00:00,306.0,8.92,300.0,11.97,12.57,47.59359,-54.27349
2021-02-11 01:04:01+00:00,304.0,11.09,304.0,15.36,12.57,47.59359,-54.27349
2021-02-11 01:14:01+00:00,298.0,10.05,288.0,12.72,12.49,47.59359,-54.27349
2021-02-11 01:24:01+00:00,312.0,10.17,314.0,11.92,12.49,47.59359,-54.27349
2021-02-11 01:34:01+00:00,313.0,8.56,312.0,9.64,12.49,47.59359,-54.27349
2021-02-11 01:44:01+00:00,288.0,8.8,278.0,10.69,12.49,47.59359,-54.27349
2021-02-11 01:54:01+00:00,306.0,8.66,301.0,11.07,12.49,47.59359,-54.27349
2021-02-11 02:04:01+00:00,302.0,8.95,315.0,12.08,12.49,47.59359,-54.27349
2021-02-11 02:14:01+00:00,297.0,7.44,304.0,9.13,12.49,47.59359,-54.27349
2021-02-11 02:24:01+00:00,283.0,9.13,284.0,10.57,12.49,47.59359,-54.27349
2021-02-11 02:34:01+00:00,282.0,10.31,276.0,11.39,12.49,47.59359,-54.27349
2021-02-11 02:44:01+00:00,287.0,10.78,287.0,11.95,12.49,47.59359,-54.27349
2021-02-11 02:54:01+00:00,293.0,8.4,293.0,9.95,12.49,47.59359,-54.27349
2021-02-11 03:04:01+00:00,286.0,9.99,279.0,12.32,12.49,47.59359,-54.27349
2021-02-11 03:14:01+00:00,285.0,9.43,290.0,13.09,12.41,47.59359,-54.27349
2021-02-11 03:24:01+00:00,285.0,9.77,285.0,12.44,12.41,47.59359,-54.27349
2021-02-11 03:34:01+00:00,279.0,9.17,291.0,10.52,12.41,47.59359,-54.27349
2021-02-11 03:44:01+00:00,275.0,9.63,273.0,11.47,12.41,47.59359,-54.27349
2021-02-11 03:54:01+00:00,279.0,11.96,285.0,14.75,12.41,47.59359,-54.27349
2021-02-11 04:04:01+00:00,293.0,10.51,300.0,12.83,12.41,47.59359,-54.27349
2021-02-11 04:14:01+00:00,297.0,14.2,298.0,18.14,12.41,47.59359,-54.27349
2021-02-11 04:24:01+00:00,298.0,13.39,303.0,16.39,12.41,47.59359,-54.27349
2021-02-11 04:34:01+00:00,295.0,13.63,299.0,16.31,12.41,47.59359,-54.27349
2021-02-11 04:44:01+00:00,300.0,13.69,293.0,15.58,12.41,47.59359,-54.27349
2021-02-11 04:54:01+00:00,302.0,14.05,299.0,17.62,12.41,47.59359,-54.27349
2021-02-11 05:04:01+00:00,302.0,14.14,302.0,17.48,12.41,47.59359,-54.27349
2021-02-11 05:14:01+00:00,299.0,14.76,290.0,18.15,12.41,47.59359,-54.27349
2021-02-11 05:24:01+00:00,300.0,16.62,302.0,19.78,12.41,47.59359,-54.27349
2021-02-11 05:34:01+00:00,296.0,15.64,294.0,20.42,12.41,47.59359,-54.27349
2021-02-11 05:44:01+00:00,300.0,16.33,293.0,20.05,12.41,47.59359,-54.27349
2021-02-11 05:54:01+00:00,299.0,15.59,297.0,19.34,12.41,47.59359,-54.27349
2021-02-11 06:04:01+00:00,304.0,16.89,303.0,19.92,12.41,47.59359,-54.27349
2021-02-11 06:14:01+00:00,303.0,17.7,305.0,20.87,12.41,47.59359,-54.27349
2021-02-11 06:24:01+00:00,297.0,17.94,299.0,21.04,12.41,47.59359,-54.27349
2021-02-11 06:34:01+00:00,296.0,17.36,290.0,20.39,12.41,47.59359,-54.27349
2021-02-11 06:44:01+00:00,295.0,18.36,296.0,22.46,12.41,47.59359,-54.27349
2021-02-11 06:54:01+00:00,288.0,17.7,285.0,20.38,12.41,47.59359,-54.27349
2021-02-11 07:04:01+00:00,290.0,16.75,289.0,20.37,12.41,47.59359,-54.27349
2021-02-11 07:14:01+00:00,284.0,17.08,280.0,20.7,12.41,47.59359,-54.27349
2021-02-11 07:24:01+00:00,288.0,18.26,287.0,22.06,12.41,47.59359,-54.27349
2021-02-11 07:34:01+00:00,280.0,15.42,286.0,18.77,12.41,47.59359,-54.27349
2021-02-11 07:44:01+00:00,285.0,15.31,297.0,17.85,12.41,47.59359,-54.27349
2021-02-11 07:54:01+00:00,281.0,15.05,288.0,18.86,12.41,47.59359,-54.27349
2021-02-11 08:04:01+00:00,287.0,16.21,288.0,18.61,12.41,47.59359,-54.27349
2021-02-11 08:14:01+00:00,281.0,15.81,280.0,18.97,12.41,47.59359,-54.27349
2021-02-11 08:24:01+00:00,289.0,13.41,297.0,16.95,12.41,47.59359,-54.27349
2021-02-11 08:34:01+00:00,286.0,14.88,289.0,16.88,12.41,47.59359,-54.27349
2021-02-11 08:44:01+00:00,278.0,14.57,284.0,20.08,12.41,47.59359,-54.27349
2021-02-11 08:54:01+00:00,289.0,14.89,290.0,16.64,12.41,47.59359,-54.27349
2021-02-11 09:04:01+00:00,291.0,13.46,302.0,17.87,12.41,47.59359,-54.27349
2021-02-11 09:14:01+00:00,282.0,14.83,284.0,17.18,12.33,47.59359,-54.27349
2021-02-11 09:24:01+00:00,285.0,14.54,289.0,17.59,12.33,47.59359,-54.27349
2021-02-11 09:34:01+00:00,293.0,15.13,298.0,19.36,12.33,47.59359,-54.27349
2021-02-11 09:44:01+00:00,288.0,16.66,283.0,21.17,12.33,47.59359,-54.27349
2021-02-11 09:54:01+00:00,292.0,14.64,288.0,17.34,12.33,47.59359,-54.27349
2021-02-11 10:04:01+00:00,294.0,17.25,286.0,20.25,12.33,47.59359,-54.27349
2021-02-11 10:14:01+00:00,289.0,15.23,284.0,20.11,12.33,47.59359,-54.27349
2021-02-11 10:24:01+00:00,279.0,14.95,280.0,16.8,12.33,47.59359,-54.27349
2021-02-11 10:34:01+00:00,285.0,15.01,300.0,17.87,12.33,47.59359,-54.27349
2021-02-11 10:44:01+00:00,274.0,16.52,278.0,20.31,12.33,47.59359,-54.27349
2021-02-11 10:54:01+00:00,276.0,16.28,277.0,20.36,12.33,47.59359,-54.27349
2021-02-11 11:04:01+00:00,278.0,14.64,282.0,16.89,12.33,47.59359,-54.27349
2021-02-11 11:14:01+00:00,279.0,15.23,277.0,18.23,12.33,47.59359,-54.27349
2021-02-11 11:24:01+00:00,281.0,16.02,278.0,19.6,12.33,47.59359,-54.27349
2021-02-11 11:34:01+00:00,292.0,14.44,299.0,17.74,12.33,47.59359,-54.27349
2021-02-11 11:44:01+00:00,291.0,15.9,291.0,19.82,12.33,47.59359,-54.27349
2021-02-11 11:54:01+00:00,293.0,14.45,300.0,18.07,12.33,47.59359,-54.27349
2021-02-11 12:04:01+00:00,292.0,15.62,292.0,18.56,12.33,47.59359,-54.27349
2021-02-11 12:14:01+00:00,287.0,13.38,299.0,16.51,12.81,47.59359,-54.27349
2021-02-11 12:24:01+00:00,295.0,14.9,290.0,19.18,12.81,47.59359,-54.27349
2021-02-11 12:34:01+00:00,283.0,16.92,276.0,20.78,12.81,47.59359,-54.27349
2021-02-11 12:44:01+00:00,289.0,15.75,293.0,18.8,12.81,47.59359,-54.27349
2021-02-11 12:54:01+00:00,294.0,17.01,288.0,19.98,12.81,47.59359,-54.27349
2021-02-11 13:04:01+00:00,285.0,15.8,297.0,18.87,12.81,47.59359,-54.27349
2021-02-11 13:14:01+00:00,290.0,17.25,296.0,22.02,13.29,47.59359,-54.27349
2021-02-11 13:24:01+00:00,295.0,15.53,287.0,18.33,13.29,47.59359,-54.27349
2021-02-11 13:34:01+00:00,293.0,16.83,290.0,22.09,13.29,47.59359,-54.27349
2021-02-11 13:44:01+00:00,293.0,15.91,296.0,20.53,13.29,47.59359,-54.27349
2021-02-11 13:54:01+00:00,295.0,17.14,301.0,19.92,13.29,47.59359,-54.27349
2021-02-11 14:04:01+00:00,290.0,16.2,285.0,19.84,13.29,47.59359,-54.27349
2021-02-11 14:14:01+00:00,283.0,15.12,289.0,18.57,13.44,47.59359,-54.27349
2021-02-11 14:24:01+00:00,292.0,16.54,295.0,19.0,13.44,47.59359,-54.27349
2021-02-11 14:34:01+00:00,287.0,16.55,285.0,19.79,13.44,47.59359,-54.27349
2021-02-11 14:44:01+00:00,297.0,17.27,304.0,20.3,13.44,47.59359,-54.27349
2021-02-11 14:54:01+00:00,287.0,15.35,293.0,17.73,13.44,47.59359,-54.27349
2021-02-11 15:04:01+00:00,290.0,18.13,294.0,25.7,13.44,47.59359,-54.27349
2021-02-11 15:14:01+00:00,294.0,17.31,302.0,19.73,13.76,47.59359,-54.27349
2021-02-11 15:24:01+00:00,287.0,17.24,286.0,20.1,13.76,47.59359,-54.27349
2021-02-11 15:34:01+00:00,288.0,13.88,288.0,16.28,13.76,47.59359,-54.27349
2021-02-11 15:44:01+00:00,294.0,16.48,291.0,20.59,13.76,47.59359,-54.27349
2021-02-11 15:54:01+00:00,297.0,14.12,297.0,16.37,13.76,47.59359,-54.27349
2021-02-11 16:04:01+00:00,293.0,14.94,298.0,17.45,13.76,47.59359,-54.27349
2021-02-11 16:14:01+00:00,288.0,14.81,307.0,18.24,13.76,47.59359,-54.27349
2021-02-11 16:24:01+00:00,286.0,14.22,299.0,17.16,13.76,47.59359,-54.27349
2021-02-11 16:34:01+00:00,293.0,11.75,298.0,15.37,13.76,47.59359,-54.27349
2021-02-11 16:44:01+00:00,285.0,12.67,277.0,15.94,13.76,47.59359,-54.27349
2021-02-11 16:54:01+00:00,284.0,11.7,295.0,15.88,13.76,47.59359,-54.27349
2021-02-11 17:04:01+00:00,284.0,12.37,284.0,14.55,13.76,47.59359,-54.27349
2021-02-11 17:14:01+00:00,281.0,12.15,287.0,16.53,13.84,47.59359,-54.27349
2021-02-11 17:24:01+00:00,282.0,12.58,276.0,15.27,13.84,47.59359,-54.27349
2021-02-11 17:34:01+00:00,278.0,9.31,281.0,11.74,13.84,47.59359,-54.27349
2021-02-11 17:44:01+00:00,281.0,10.36,291.0,13.38,13.84,47.59359,-54.27349
2021-02-11 17:54:01+00:00,281.0,11.28,292.0,14.02,13.84,47.59359,-54.27349
2021-02-11 18:04:01+00:00,273.0,13.38,265.0,17.94,13.84,47.59359,-54.27349
2021-02-11 18:14:01+00:00,279.0,11.43,281.0,14.94,13.6,47.59359,-54.27349
2021-02-11 18:24:01+00:00,279.0,12.34,284.0,15.92,13.6,47.59359,-54.27349
2021-02-11 18:34:01+00:00,277.0,11.09,279.0,14.49,13.6,47.59359,-54.27349
2021-02-11 18:44:01+00:00,284.0,11.74,288.0,14.96,13.6,47.59359,-54.27349
2021-02-11 18:54:01+00:00,285.0,9.67,287.0,11.88,13.6,47.59359,-54.27349
2021-02-11 19:04:01+00:00,277.0,12.83,278.0,15.64,13.6,47.59359,-54.27349
2021-02-11 19:14:01+00:00,278.0,10.71,276.0,12.85,13.53,47.59359,-54.27349
2021-02-11 19:24:01+00:00,271.0,8.51,280.0,10.54,13.53,47.59359,-54.27349
2021-02-11 19:34:01+00:00,280.0,11.15,283.0,14.59,13.53,47.59359,-54.27349
2021-02-11 19:44:01+00:00,281.0,9.31,282.0,10.44,13.53,47.59359,-54.27349
2021-02-11 19:54:01+00:00,280.0,9.66,285.0,11.9,13.53,47.59359,-54.27349
2021-02-11 20:04:01+00:00,288.0,11.81,286.0,14.71,13.53,47.59359,-54.27349
2021-02-11 20:14:01+00:00,272.0,8.62,273.0,10.23,12.97,47.59359,-54.27349
2021-02-11 20:24:01+00:00,276.0,9.34,280.0,11.32,12.97,47.59359,-54.27349
2021-02-11 20:34:01+00:00,277.0,9.7,279.0,11.78,12.97,47.59359,-54.27349
2021-02-11 20:44:01+00:00,280.0,9.98,284.0,12.41,12.97,47.59359,-54.27349
2021-02-11 20:54:01+00:00,278.0,8.42,277.0,10.94,12.97,47.59359,-54.27349
2021-02-11 21:04:01+00:00,282.0,8.55,293.0,11.11,12.97,47.59359,-54.27349
2021-02-11 21:14:01+00:00,275.0,9.38,280.0,11.45,12.65,47.59359,-54.27349
2021-02-11 21:24:01+00:00,278.0,10.48,286.0,12.62,12.65,47.59359,-54.27349
2021-02-11 21:34:01+00:00,281.0,9.52,278.0,11.7,12.65,47.59359,-54.27349
2021-02-11 21:44:01+00:00,277.0,10.35,280.0,13.02,12.65,47.59359,-54.27349
2021-02-11 21:54:01+00:00,291.0,11.51,292.0,14.1,12.65,47.59359,-54.27349
2021-02-11 22:04:01+00:00,284.0,10.9,286.0,15.03,12.65,47.59359,-54.27349
2021-02-11 22:14:01+00:00,287.0,11.49,290.0,14.7,12.57,47.59359,-54.27349
2021-02-11 22:24:01+00:00,286.0,10.35,286.0,12.63,12.57,47.59359,-54.27349
2021-02-11 22:34:01+00:00,288.0,10.54,285.0,13.91,12.57,47.59359,-54.27349
2021-02-11 22:44:01+00:00,291.0,10.75,290.0,14.15,12.57,47.59359,-54.27349
2021-02-11 22:54:01+00:00,289.0,12.09,296.0,15.15,12.57,47.59359,-54.27349
2021-02-11 23:04:01+00:00,293.0,11.69,297.0,15.12,12.57,47.59359,-54.27349
2021-02-11 23:14:01+00:00,291.0,11.33,295.0,13.73,12.49,47.59359,-54.27349
2021-02-11 23:24:01+00:00,294.0,13.28,298.0,15.77,12.49,47.59359,-54.27349
2021-02-11 23:34:01+00:00,295.0,13.37,302.0,15.95,12.49,47.59359,-54.27349
2021-02-11 23:44:01+00:00,289.0,13.02,297.0,15.96,12.49,47.59359,-54.27349
2021-02-11 23:54:01+00:00,291.0,13.13,296.0,15.32,12.49,47.59359,-54.27349
